Location: Fauquembergues
(50.6005°N, 2.0987°E)
Time: 08:16:01
(UTC+00:00)

NOSS 2-1 (D) - Pass Details

Date: 14 July 2020
Orbit: 447 x 1756 km, 63.3° (Epoch: 01 August)

Event Time Altitude Azimuth Distance (km) Brightness Sun altitude
Rises 00:28:52 0° 315° (NW) 2,950 7.6 -17.4°
Reaches altitude 10° 00:30:52 10° 315° (NW) 2,170 6.8 -17.4°
Maximum altitude 00:35:49 84° 229° (SW) 882 4.2 -17.3°
Drops below altitude 10° 00:42:50 10° 141° (SE) 3,022 6.7 -17.1°
Enters shadow 00:43:40 - 141° (SE) 3,331 6.9 -17.1°
